Wenatchee, WA

3:07 PM PDT on April 24, 2018 (GMT -0700)
Pangborn Memorial

Weather History for KEAT - October, 2013

Change the Weather History Date:

Tuesday, October 8, 2013

  Actual Average Record
Temperature  
Mean Temperature 45 °F 49 °F  
Max Temperature 53 °F 62 °F 79 °F (1965)
Min Temperature 37 °F 36 °F 28 °F (2017)
Degree Days  
Heating Degree Days 20 16  
Month to date heating degree days 147 118  
Since 1 July heating degree days 362 474  
Cooling Degree Days 0 0  
Month to date cooling degree days 0 0  
Year to date cooling degree days 383 249  
Moisture  
Dew Point 36 °F    
Average Humidity 58    
Maximum Humidity 73    
Minimum Humidity 37    
Precipitation  
Precipitation 0.06 in 0.03 in 0.50 in (1997)
Month to date precipitation 0.12 0.21  
Year to date precipitation 10.58 11.26  
Snow  
Snow 0.00 in 0.00 in - ()
Month to date snowfall 0.0 0.0  
Since 1 July snowfall 0.0 0.0  
Since 1 September snowfall 0.0 0.0  
Snow Depth 0.00 in    
Sea Level Pressure  
Sea Level Pressure 29.91 in    
Wind  
Wind Speed 7 mph (NW)    
Max Wind Speed 25 mph    
Max Gust Speed 33 mph    
Visibility 10 miles    
Events Rain    
T = Trace of Precipitation, MM = Missing Value Source: NWS Daily Summary

Daily Weather History Graph

Daily Weather History Graph

Search for Another Location

Airport or City:

Astronomy

Oct. 08, 2013 Rise Set
Actual Time 7:09 AM PDT 6:25 PM PDT
Civil Twilight 6:39 AM PDT 6:56 PM PDT
Nautical Twilight 6:03 AM PDT 7:31 PM PDT
Astronomical Twilight 5:27 AM PDT 8:07 PM PDT
Moon 11:25 AM PDT (10/8) 8:51 PM PDT (10/8)
Length of Visible Light 12h 17m
Length of Day
11h 15m
Waxing Crescent, 17% of the Moon is Illuminated
Oct 8
Waxing Crescent
Oct 11
First Quarter
Oct 18
Full
Oct 26
Last Quarter
Nov 3
New

Hourly Weather History & Observations

Time (PDT) Temp. Windchill Dew Point Humidity Pressure Visibility Wind Dir Wind Speed Gust Speed Precip Events Conditions
12:55 AM 46.9 °F - 36.0 °F 66% 29.88 in 10.0 mi Calm Calm - N/A   Clear
1:55 AM 45.0 °F - 36.0 °F 71% 29.88 in 10.0 mi Calm Calm - N/A   Clear
2:55 AM 44.1 °F 40.8 °F 36.0 °F 73% 29.88 in 10.0 mi Variable 5.8 mph - N/A   Clear
3:55 AM 46.0 °F - 36.0 °F 68% 29.87 in 10.0 mi Calm Calm - N/A   Clear
4:55 AM 48.0 °F - 36.0 °F 63% 29.88 in 10.0 mi NW 10.4 mph 17.3 mph N/A   Clear
5:55 AM 50.0 °F - 35.1 °F 57% 29.87 in 10.0 mi North 10.4 mph - N/A   Partly Cloudy
6:55 AM 48.0 °F - 35.1 °F 61% 29.86 in 10.0 mi North 10.4 mph - N/A   Clear
7:55 AM 48.9 °F - 35.1 °F 59% 29.87 in 10.0 mi NNW 8.1 mph - N/A   Clear
8:55 AM 53.1 °F - 35.1 °F 50% 29.86 in 10.0 mi NNW 11.5 mph - N/A   Clear
9:55 AM 55.9 °F - 36.0 °F 47% 29.85 in 10.0 mi NW 19.6 mph - N/A   Clear
10:55 AM 53.1 °F - 37.0 °F 55% 29.87 in 10.0 mi NW 21.9 mph 29.9 mph N/A   Clear
11:55 AM 52.0 °F - 36.0 °F 54% 29.89 in 10.0 mi WNW 25.3 mph 33.4 mph N/A   Partly Cloudy
12:55 PM 51.1 °F - 35.1 °F 54% 29.90 in 10.0 mi WNW 18.4 mph - N/A   Clear
1:55 PM 53.1 °F - 34.0 °F 48% 29.89 in 10.0 mi NW 15.0 mph - N/A   Partly Cloudy
2:55 PM 55.9 °F - 33.1 °F 42% 29.88 in 10.0 mi WNW 15.0 mph - N/A   Clear
3:55 PM 57.0 °F - 30.9 °F 37% 29.88 in 10.0 mi WNW 10.4 mph - N/A   Scattered Clouds
4:27 PM 53.6 °F - 33.8 °F 47% 29.89 in 10.0 mi NNE 15.0 mph 24.2 mph N/A   Overcast
4:48 PM 53.6 °F - 33.8 °F 47% 29.90 in 10.0 mi NE 8.1 mph 18.4 mph 0.00 in Rain Light Rain
4:55 PM 54.0 °F - 34.0 °F 47% 29.91 in 10.0 mi NE 5.8 mph - 0.00 in   Overcast
5:55 PM 50.0 °F - 37.9 °F 63% 29.93 in 10.0 mi NNW 5.8 mph - N/A   Mostly Cloudy
6:55 PM 48.9 °F - 37.0 °F 64% 29.96 in 10.0 mi Calm Calm - N/A   Overcast
7:55 PM 48.0 °F - 39.0 °F 71% 29.98 in 10.0 mi West 4.6 mph - N/A   Overcast
8:55 PM 48.0 °F - 39.0 °F 71% 30.00 in 10.0 mi WNW 3.5 mph - N/A   Overcast
9:55 PM 48.0 °F - 37.9 °F 68% 30.00 in 10.0 mi WNW 5.8 mph - N/A   Overcast
10:55 PM 48.9 °F - 35.1 °F 59% 30.03 in 10.0 mi NW 4.6 mph - N/A   Overcast
11:55 PM 46.0 °F 43.9 °F 35.1 °F 66% 30.04 in 10.0 mi NW 4.6 mph - N/A   Clear